This is the latest recevied weather packets stored in our database for station/object KF4ERV-4. If no packets are shown the sender has not sent any weather packets the latest 10 day(s).
| Time | Temp. | Humidity | Pressure | Rain* | Wind** | Luminosity | Snow |
|---|---|---|---|---|---|---|---|
| 1787503324 | 26.67° C | 66% | 1018 hPa | 0 mm | - | - | - |
| 1787503174 | 26.67° C | 66% | 1018 hPa | 0 mm | - | - | - |
| 1787503034 | 27.22° C | 67% | 1017.9 hPa | 0 mm | - | - | - |
| 1787502867 | 27.22° C | 67% | 1017.9 hPa | 0 mm | - | - | - |
| 1787502745 | 27.22° C | 68% | 1017.9 hPa | 0 mm | - | - | - |
| 1787502570 | 27.22° C | 68% | 1017.9 hPa | 0 mm | - | - | - |
| 1787502454 | 27.22° C | 68% | 1017.9 hPa | 0 mm | - | - | - |
| 1787502274 | 27.22° C | 68% | 1017.9 hPa | 0 mm | - | - | - |
| 1787501975 | 27.22° C | 66% | 1017.9 hPa | 0 mm | - | - | - |
| 1787501874 | 26.67° C | 66% | 1017.9 hPa | 0 mm | - | - | - |
| 1787501669 | 26.67° C | 66% | 1017.9 hPa | 0 mm | - | - | - |
| 1787501371 | 26.67° C | 67% | 1018.1 hPa | 0 mm | - | - | - |
| 1787501295 | 27.22° C | 65% | 1017.9 hPa | 0 mm | - | - | - |
| 1787501075 | 27.22° C | 65% | 1017.9 hPa | 0 mm | - | - | - |
| 1787501005 | 26.67° C | 64% | 1018.1 hPa | 0 mm | - | - | - |
| 1787500714 | 26.67° C | 64% | 1017.9 hPa | 0 mm | - | - | - |
| 1787500469 | 26.67° C | 64% | 1017.9 hPa | 0 mm | - | - | - |
| 1787500425 | 26.67° C | 61% | 1018 hPa | 0 mm | - | - | - |
| 1787500172 | 26.67° C | 61% | 1018 hPa | 0 mm | - | - | - |
| 1787499874 | 26.67° C | 60% | 1018 hPa | 0 mm | - | - | - |
| 1787499568 | 26.11° C | 57% | 1017.9 hPa | 0 mm | - | - | - |
| 1787499270 | 25.56° C | 52% | 1018 hPa | 0 mm | - | - | - |
| 1787498975 | 25° C | 49% | 1018 hPa | 0 mm | - | - | - |
| 1787498677 | 24.44° C | 45% | 1017.9 hPa | 0 mm | - | - | - |
| 1787498394 | 24.44° C | 41% | 1017.9 hPa | 0 mm | - | - | - |
* Rain latest hour (hover to see other rain measurements)
** Current wind speed in m/s (hover to see current wind gust speed)